Regional Weather Roundup
Issued by NWS Cleveland, OH

Home | Current Version | Previous Version | Graphics & Text | Print | Product List | Glossary On
Versions: 1 2 3 4 5 6 7 8 9 10 11 12 13 14 15 16 17 18 19 20 21 22 23 24 25 26 27 28 29 30 31 32 33 34 35 36 37 38 39 40 41 42 43 44 45 46 47 48 49 50
000
ASUS41 KCLE 271802
RWRCLE
OHIO REGIONAL WEATHER ROUNDUP
NATIONAL WEATHER SERVICE CLEVELAND, OH
200 PM EDT THU APR 27 2017

NOTE: "FAIR" INDICATES FEW OR NO CLOUDS BELOW 12,000 FEET WITH NO
SIGNIFICANT WEATHER AND/OR OBSTRUCTIONS TO VISIBILITY.

OHZ001>008-015>018-024>027-034-035-043-044-271900-
   NORTHWEST OHIO

CITY           SKY/WX    TMP DP  RH WIND       PRES   REMARKS
DEFIANCE       MOSUNNY   62  49  62 W14G31    29.58R
FINDLAY        CLOUDY    64  53  67 W18G36    29.57R
TOLEDO EXPRESS PTSUNNY   67  56  67 SW26G36   29.55R
TOLEDO EXEC    PTSUNNY   67  57  70 SW21G37   29.55R
LIMA           PTSUNNY   66  57  72 W28       29.60R
$$

OHZ009>014-019>023-028>033-038-089-271900-
   NORTHEAST OHIO

CITY           SKY/WX    TMP DP  RH WIND       PRES   REMARKS
CLE-HOPKINS    CLOUDY    76  52  43 SW22G31   29.58S
CLE-LAKEFRONT  CLOUDY    77  53  43 S22G30    29.55R
CUY CO. ARPT   CLOUDY    79  55  44 SW15G23   29.58F
LORAIN-ELYRIA  CLOUDY    69  52  54 W24G31    29.59R
ASHTABULA      CLOUDY    80  54  40 S13G29    29.60F
AKRON-CANTON   CLOUDY    75  54  47 S18G26    29.61S
WOOSTER        CLOUDY    74  54  49 SW24G36   29.60R
MANSFIELD      LGT RAIN  68  56  65 SW20      29.62R
YOUNGSTOWN     CLOUDY    78  54  43 S14G26    29.62F
$$

OHZ042-051>053-060>062-070>072-077>081-271900-
  SOUTHWEST OHIO

CITY           SKY/WX    TMP DP  RH WIND       PRES   REMARKS
CINC-COVINGTON CLOUDY    65  56  72 SW17G25   29.67R
CINC-LUNKEN    PTSUNNY   69  63  81 SW15G22   29.66R
HAMILTON       PTSUNNY   67  58  72 W20G28    29.67R
DAYTON         CLOUDY    66  56  70 SW21G36   29.64R
WRIGHT-PAT AFB PTSUNNY   65  63  91 SW18      29.63R
DAYTON GENERAL CLOUDY    65  60  84 SW13      29.64R
WILMINGTON     PTSUNNY   71  61  70 SW21G28   29.62F
$$

OHZ036-037-039>041-045>050-054>059-063>069-073>076-082>088-271900-
  CENTRAL AND SOUTHEAST OHIO

CITY           SKY/WX    TMP DP  RH WIND       PRES   REMARKS
COLUMBUS       CLOUDY    68  61  78 W17       29.64R
OSU AIRPORT    LGT RAIN  65  60  84 SW12      29.63R
BOLTON FIELD   CLOUDY    64  61  88 SW9       29.64R
RICKENBACK AFB CLOUDY    68  59  73 W16G28    29.63S
NEWARK         CLOUDY    76  57  51 SW18G26   29.60F
MARION         CLOUDY    72  55  55 SW25G31   29.61R
LANCASTER      CLOUDY    70  58  65 W17G30    29.65R
ZANESVILLE     CLOUDY    77  57  50 S17G26    29.63S
NEW PHILLY     NOT AVBL
$$



USA.gov is the U.S. government's official web portal to all federal, state and local government web resources and services.